Location: Northam
(31.6525°S, 116.6655°E)
Time: 06:07:57
(UTC+08:00)

N. Korean satellite - Pass Details

Date: 30 July 2021
Orbit: 448 x 499 km, 97.3° (Epoch: 17 September)

Event Time Altitude Azimuth Distance (km) Brightness Sun altitude
Rises 18:25:18 0° 194° (SSW) 2,539 10.2 -10.7°
Reaches altitude 10° 18:28:18 10° 223° (SW) 1,662 9.7 -11.3°
Maximum altitude 18:29:57 13° 250° (WSW) 1,494 9.9 -11.6°
Drops below altitude 10° 18:31:37 10° 278° (W) 1,665 10.8 -12.0°
Sets 18:34:38 0° 307° (NW) 2,546 11.6 -12.6°
